{"data":{"norad_id":67459,"epoch":"2026-05-25T05:30:53.899200Z","epoch_age_seconds":54901,"freshness":"FRESH","line1":"1 67459U 26008Q   26145.22979050  .00015555  00000+0  57339-3 0  9999","line2":"2 67459  42.9982 133.3396 0001570 242.6008 117.4684 15.27590678 21273","mean_motion":15.27590678,"eccentricity":0.000157,"inclination_deg":42.9982,"raan_deg":133.3396,"arg_perigee_deg":242.6008,"mean_anomaly_deg":117.4684,"bstar":0.00057339,"rev_number":2127,"period_min":94.266089780367,"perigee_km":481.93992125529,"apogee_km":484.09432364974,"semimajor_km":6861.1541224525,"source":"CELESTRAK","updated_at":"2026-05-25T13:38:21.562351Z"}}